FW1304 Weather Reports


Display with metric or nautical units.
time (UTC)temp
F
wind
direction
speed
MPH
gust
MPH
rain 1hr
in
rain 24hr
in
rain mn
in
humidity
%
barometer
mb
20240305105830 24 285 0.0 0.0 0.00 0.00 0.00 68 1018.8
20240305105315 25 285 0.0 0.0 0.00 0.00 0.00 67 1018.7
20240305104849 25 285 0.0 0.0 0.00 0.00 0.00 65 1018.7
20240305104320 25 285 0.0 0.0 0.00 0.00 0.00 65 1018.6
20240305103832 25 285 0.0 0.0 0.00 0.00 0.00 64 1018.4
20240305103327 25 285 0.0 0.0 0.00 0.00 0.00 63 1018.3
20240305102848 25 360 0.0 0.0 0.00 0.00 0.00 59 1018.2
20240305102341 26 360 0.0 0.0 0.00 0.00 0.00 59 1018.0
20240305101846 26 360 0.0 0.0 0.00 0.00 0.00 59 1017.9
20240305101336 26 355 0.0 0.0 0.00 0.00 0.00 59 1017.8
20240305100821 26 355 0.0 0.0 0.00 0.00 0.00 58 1017.8
20240305100316 26 349 0.0 0.0 0.00 0.00 0.00 58 1017.6
20240305095817 26 344 0.0 0.0 0.00 0.00 0.00 58 1017.5
20240305095323 26 15 0.0 0.0 0.00 0.00 0.00 58 1017.5
20240305094818 26 31 0.0 1.0 0.00 0.00 0.00 57 1017.2
20240305094319 26 22 0.0 1.0 0.00 0.00 0.00 57 1017.0
20240305093850 27 14 0.0 0.0 0.00 0.00 0.00 57 1016.9
20240305093324 27 19 0.0 0.0 0.00 0.00 0.00 57 1016.9
20240305092826 27 29 0.0 0.0 0.00 0.00 0.00 57 1016.8
20240305092401 27 38 0.0 0.0 0.00 0.00 0.00 57 1016.9
20240305091826 27 24 0.0 0.0 0.00 0.00 0.00 57 1016.9
20240305091330 27 13 0.0 0.0 0.00 0.00 0.00 57 1016.9
20240305090816 27 13 0.0 0.0 0.00 0.00 0.00 57 1016.9
20240305090352 27 16 0.0 0.0 0.00 0.00 0.00 57 1017.0
20240305085832 27 17 0.0 0.0 0.00 0.00 0.00 57 1016.9
20240305085347 27 16 0.0 0.0 0.00 0.00 0.00 57 1016.9
20240305084841 27 348 0.0 0.0 0.00 0.00 0.00 57 1017.0
20240305084314 27 22 0.0 0.0 0.00 0.00 0.00 57 1016.9
20240305083823 27 14 0.0 0.0 0.00 0.00 0.00 57 1017.1
20240305083318 27 5 0.0 0.0 0.00 0.00 0.00 57 1017.1
20240305082821 27 9 0.0 0.0 0.00 0.00 0.00 56 1017.2
20240305082335 27 5 0.0 0.0 0.00 0.00 0.00 56 1017.3
20240305081820 27 5 0.0 0.0 0.00 0.00 0.00 56 1017.3
20240305081346 27 5 0.0 0.0 0.00 0.00 0.00 57 1017.2
20240305080832 27 5 0.0 0.0 0.00 0.00 0.00 57 1017.2
20240305080326 27 9 0.0 0.0 0.00 0.00 0.00 57 1017.1
20240305075827 27 10 0.0 0.0 0.00 0.00 0.00 57 1017.2
20240305075313 28 11 0.0 0.0 0.00 0.00 0.00 57 1017.2
20240305074828 27 11 0.0 0.0 0.00 0.00 0.00 56 1017.2
20240305074331 28 10 0.0 0.0 0.00 0.00 0.00 57 1017.1
20240305073825 28 19 0.0 0.0 0.00 0.00 0.00 57 1017.1
20240305073331 28 26 0.0 0.0 0.00 0.00 0.00 56 1017.0
20240305072813 28 13 0.0 0.0 0.00 0.00 0.00 56 1017.1
20240305072328 28 24 0.0 0.0 0.00 0.00 0.00 56 1017.2
20240305071814 28 11 0.0 0.0 0.00 0.00 0.00 56 1017.3
20240305071316 28 38 0.0 0.0 0.00 0.00 0.00 56 1017.4
20240305070848 28 15 0.0 0.0 0.00 0.00 0.00 56 1017.3
20240305070342 28 12 0.0 0.0 0.00 0.00 0.00 56 1017.3
20240305065815 28 29 0.0 0.0 0.00 0.00 0.00 56 1017.3
20240305065332 28 349 0.0 0.0 0.00 0.00 0.00 56 1017.3
20240305064846 28 5 0.0 0.0 0.00 0.00 0.00 56 1017.4
20240305064328 28 5 0.0 0.0 0.00 0.00 0.00 56 1017.3
20240305063813 28 12 0.0 0.0 0.00 0.00 0.00 56 1017.3
20240305063328 28 14 0.0 0.0 0.00 0.00 0.00 56 1017.4
20240305062823 28 333 0.0 0.0 0.00 0.00 0.00 56 1017.4
20240305062318 28 355 0.0 0.0 0.00 0.00 0.00 56 1017.5
20240305061824 28 341 0.0 0.0 0.00 0.00 0.00 56 1017.3
20240305061329 28 5 0.0 0.0 0.00 0.00 0.00 56 1017.4
20240305060815 29 9 0.0 0.0 0.00 0.00 0.00 56 1017.3
20240305060331 29 350 0.0 0.0 0.00 0.00 0.00 56 1017.3
20240305055832 29 350 0.0 0.0 0.00 0.00 0.00 55 1017.3
20240305055313 29 334 0.0 0.0 0.00 0.00 0.00 55 1017.4
20240305054828 29 329 0.0 0.0 0.00 0.00 0.00 55 1017.4
20240305054338 29 341 0.0 0.0 0.00 0.00 0.00 55 1017.2
20240305053823 29 337 0.0 0.0 0.00 0.00 0.00 54 1017.2
20240305053338 29 332 0.0 0.0 0.00 0.00 0.00 54 1017.4
20240305052840 29 331 0.0 0.0 0.00 0.00 0.00 54 1017.2
20240305052325 29 332 0.0 0.0 0.00 0.00 0.00 54 1017.3
20240305051820 29 322 0.0 0.0 0.00 0.00 0.00 54 1017.2
20240305051323 29 336 0.0 0.0 0.00 0.00 0.00 54 1017.1
20240305050838 29 321 0.0 0.0 0.00 0.00 0.00 54 1017.1
20240305050324 29 316 0.0 0.0 0.00 0.00 0.00 54 1017.1
20240305045825 30 346 0.0 0.0 0.00 0.00 0.00 54 1017.1
20240305045340 30 341 0.0 0.0 0.00 0.00 0.00 54 1017.0
20240305044826 30 355 0.0 0.0 0.00 0.00 0.00 54 1016.9
20240305044328 30 311 0.0 0.0 0.00 0.00 0.00 54 1016.9
20240305043821 30 323 0.0 4.0 0.00 0.00 0.00 54 1016.8
20240305043327 30 327 0.0 4.0 0.00 0.00 0.00 54 1016.6
20240305042854 30 327 0.0 0.0 0.00 0.00 0.00 54 1016.6
20240305042318 30 331 0.0 1.0 0.00 0.00 0.00 54 1016.6
20240305041830 30 327 0.0 1.0 0.00 0.00 0.00 54 1016.5
20240305041330 30 327 0.0 0.0 0.00 0.00 0.00 54 1016.6
20240305040816 30 329 0.0 0.0 0.00 0.00 0.00 54 1016.5
20240305040332 30 329 0.0 0.0 0.00 0.00 0.00 54 1016.6
20240305035813 30 311 0.0 0.0 0.00 0.00 0.00 54 1016.4
20240305035328 31 323 0.0 0.0 0.00 0.00 0.00 54 1016.6
20240305034813 31 325 0.0 0.0 0.00 0.00 0.00 53 1016.6
20240305034315 31 325 0.0 0.0 0.00 0.00 0.00 53 1016.7
20240305033850 31 325 0.0 0.0 0.00 0.00 0.00 53 1016.6
20240305033332 31 333 0.0 0.0 0.00 0.00 0.00 53 1016.3
20240305032833 31 336 0.0 0.0 0.00 0.00 0.00 53 1016.3
20240305032327 31 339 0.0 0.0 0.00 0.00 0.00 53 1016.3
20240305031813 32 340 0.0 0.0 0.00 0.00 0.00 53 1016.3
20240305031340 32 340 0.0 0.0 0.00 0.00 0.00 53 1016.3
20240305030826 32 340 0.0 0.0 0.00 0.00 0.00 54 1016.0
20240305030341 32 329 0.0 0.0 0.00 0.00 0.00 54 1016.0
20240305025813 32 329 0.0 0.0 0.00 0.00 0.00 54 1016.1
20240305025349 32 340 0.0 0.0 0.00 0.00 0.00 54 1016.0
20240305024823 32 339 0.0 0.0 0.00 0.00 0.00 55 1016.0
20240305024319 32 330 0.0 0.0 0.00 0.00 0.00 55 1015.8
20240305023854 32 323 0.0 0.0 0.00 0.00 0.00 54 1015.8
20240305023348 32 323 0.0 0.0 0.00 0.00 0.00 54 1015.9
20240305022822 32 323 0.0 0.0 0.00 0.00 0.00 54 1015.8
20240305022318 32 323 0.0 0.0 0.00 0.00 0.00 54 1015.6
20240305021824 33 323 0.0 0.0 0.00 0.00 0.00 54 1015.6
20240305021326 33 323 0.0 0.0 0.00 0.00 0.00 53 1015.5
20240305020821 33 321 0.0 0.0 0.00 0.00 0.00 53 1015.6
20240305020327 33 325 0.0 0.0 0.00 0.00 0.00 53 1015.4
20240305015825 33 327 0.0 0.0 0.00 0.00 0.00 53 1015.3
20240305015401 33 334 0.0 0.0 0.00 0.00 0.00 53 1015.3
20240305014843 33 334 0.0 0.0 0.00 0.00 0.00 52 1015.2
20240305014327 34 334 0.0 0.0 0.00 0.00 0.00 51 1015.1
20240305013833 34 334 0.0 0.0 0.00 0.00 0.00 50 1015.1
20240305013347 34 334 0.0 0.0 0.00 0.00 0.00 50 1015.1
20240305012828 35 334 0.0 0.0 0.00 0.00 0.00 49 1015.0
20240305012342 35 334 0.0 0.0 0.00 0.00 0.00 49 1015.1
20240305011828 35 334 0.0 0.0 0.00 0.00 0.00 49 1015.2
20240305011321 35 334 0.0 0.0 0.00 0.00 0.00 48 1015.3
20240305010815 35 334 0.0 0.0 0.00 0.00 0.00 48 1015.4
20240305010325 35 334 0.0 0.0 0.00 0.00 0.00 48 1015.3
20240305005848 35 335 0.0 0.0 0.00 0.00 0.00 48 1015.2
20240305005342 36 335 0.0 0.0 0.00 0.00 0.00 47 1015.1
20240305004836 36 335 0.0 0.0 0.00 0.00 0.00 47 1015.0
20240305004336 36 335 0.0 0.0 0.00 0.00 0.00 47 1014.9
20240305003902 36 335 0.0 0.0 0.00 0.00 0.00 46 1014.9
20240305003327 37 335 0.0 0.0 0.00 0.00 0.00 46 1015.0
20240305002828 37 335 0.0 0.0 0.00 0.00 0.00 46 1014.8
20240305002323 37 335 0.0 0.0 0.00 0.00 0.00 45 1014.6
20240305001826 37 336 0.0 0.0 0.00 0.00 0.00 45 1014.5
20240305001328 37 336 0.0 0.0 0.00 0.00 0.00 45 1014.4
20240305000823 38 335 0.0 0.0 0.00 0.00 0.00 45 1014.3
20240305000340 38 9 0.0 0.0 0.00 0.00 0.00 44 1014.4
20240304235840 38 340 0.0 0.0 0.00 0.00 0.00 44 1014.4
20240304235325 38 348 0.0 0.0 0.00 0.00 0.00 44 1014.5
20240304234837 38 329 0.0 0.0 0.00 0.00 0.00 43 1014.4
20240304234339 39 360 0.0 1.0 0.00 0.00 0.00 43 1014.3
20240304233857 39 5 0.0 9.0 0.00 0.00 0.00 44 1014.4
20240304233340 39 344 1.0 9.0 0.00 0.00 0.00 44 1014.5
20240304232814 39 326 0.0 0.0 0.00 0.00 0.00 44 1014.5
20240304232329 39 348 0.0 0.0 0.00 0.00 0.00 43 1014.5
20240304231824 39 333 0.0 1.0 0.00 0.00 0.00 44 1014.5
20240304231327 39 315 0.0 1.0 0.00 0.00 0.00 44 1014.5
20240304230831 39 333 0.0 0.0 0.00 0.00 0.00 44 1014.5
20240304230326 39 315 0.0 1.0 0.00 0.00 0.00 43 1014.4
20240304225827 39 355 0.0 1.0 0.00 0.00 0.00 43 1014.4
20240304225313 39 298 0.0 0.0 0.00 0.00 0.00 44 1014.4
20240304224828 39 5 0.0 0.0 0.00 0.00 0.00 43 1014.4
20240304224353 39 19 0.0 0.0 0.00 0.00 0.00 43 1014.3
20240304223819 39 355 0.0 1.0 0.00 0.00 0.00 43 1014.3
20240304223332 39 5 0.0 1.0 0.00 0.00 0.00 43 1014.2
20240304222826 39 327 0.0 2.0 0.00 0.00 0.00 44 1014.3
20240304222332 39 5 0.0 2.0 0.00 0.00 0.00 44 1014.2
20240304221826 39 346 0.0 1.0 0.00 0.00 0.00 45 1014.1
20240304221328 39 5 0.0 1.0 0.00 0.00 0.00 45 1014.3
20240304220823 39 355 0.0 1.0 0.00 0.00 0.00 45 1014.2
20240304220329 39 331 0.0 1.0 0.00 0.00 0.00 45 1014.1
20240304215831 38 351 0.0 1.0 0.00 0.00 0.00 47 1014.2
20240304215327 38 355 0.0 5.0 0.00 0.00 0.00 47 1014.2
20240304214814 38 15 0.0 5.0 0.00 0.00 0.00 47 1014.2
20240304214346 38 339 0.0 1.0 0.00 0.00 0.00 47 1014.1
20240304213831 39 344 0.0 0.0 0.00 0.00 0.00 47 1014.1
20240304213327 39 355 0.0 7.0 0.00 0.00 0.00 47 1014.0
20240304212850 39 360 1.0 7.0 0.00 0.00 0.00 47 1014.0
20240304212322 39 319 0.0 1.0 0.00 0.00 0.00 48 1014.0
20240304211837 39 323 0.0 0.0 0.00 0.00 0.00 48 1013.9
20240304211336 39 318 0.0 0.0 0.00 0.00 0.00 49 1013.9
20240304210823 39 315 0.0 0.0 0.00 0.00 0.00 48 1013.7
20240304210320 39 290 0.0 0.0 0.00 0.00 0.00 48 1013.8
20240304205820 39 323 0.0 0.0 0.00 0.00 0.00 48 1013.8
20240304205326 39 334 0.0 0.0 0.00 0.00 0.00 48 1013.9
20240304204821 39 293 0.0 0.0 0.00 0.00 0.00 49 1013.9
20240304204344 39 268 0.0 0.0 0.00 0.00 0.00 49 1013.9
20240304203838 39 310 0.0 0.0 0.00 0.00 0.00 48 1013.7
20240304203332 38 290 0.0 0.0 0.00 0.00 0.00 50 1013.7
20240304202832 38 303 0.0 0.0 0.00 0.00 0.00 49 1013.7
20240304202319 38 303 0.0 0.0 0.00 0.00 0.00 48 1013.6
20240304201833 38 312 0.0 0.0 0.00 0.00 0.00 49 1013.4
20240304201335 38 46 0.0 0.0 0.00 0.00 0.00 49 1013.5
20240304200850 38 46 0.0 0.0 0.00 0.00 0.00 50 1013.6
20240304200335 38 51 0.0 0.0 0.00 0.00 0.00 50 1013.5
20240304195815 38 51 0.0 0.0 0.00 0.00 0.00 49 1013.6
20240304195326 38 315 0.0 0.0 0.00 0.00 0.00 49 1013.7
20240304194820 38 304 0.0 0.0 0.00 0.00 0.00 50 1013.8
20240304194322 38 331 0.0 0.0 0.00 0.00 0.00 49 1013.8
20240304193837 38 340 0.0 0.0 0.00 0.00 0.00 49 1013.8
20240304193330 37 31 0.0 0.0 0.00 0.00 0.00 50 1013.8
20240304192831 37 17 0.0 0.0 0.00 0.00 0.00 50 1013.7
20240304192317 37 288 0.0 0.0 0.00 0.00 0.00 51 1013.9
20240304191832 37 327 0.0 0.0 0.00 0.00 0.00 50 1013.9
20240304191313 37 326 0.0 0.0 0.00 0.00 0.00 51 1013.8
20240304190849 36 288 0.0 0.0 0.00 0.00 0.00 51 1013.8
20240304190314 36 360 0.0 0.0 0.00 0.00 0.00 52 1013.8
20240304185815 36 295 0.0 0.0 0.00 0.00 0.00 51 1013.9
20240304185330 36 20 0.0 0.0 0.00 0.00 0.00 52 1014.0
20240304184824 36 300 0.0 0.0 0.00 0.00 0.00 53 1014.0
20240304184342 35 283 0.0 0.0 0.00 0.00 0.00 52 1014.0
20240304183836 35 261 0.0 0.0 0.00 0.00 0.00 52 1014.1
20240304183322 35 298 0.0 0.0 0.00 0.00 0.00 52 1014.2
20240304182823 35 316 0.0 0.0 0.00 0.00 0.00 52 1014.3
20240304182338 35 300 0.0 0.0 0.00 0.00 0.00 52 1014.4
20240304181824 35 323 0.0 0.0 0.00 0.00 0.00 52 1014.4
20240304181326 35 321 0.0 0.0 0.00 0.00 0.00 52 1014.4
20240304180820 35 315 0.0 0.0 0.00 0.00 0.00 53 1014.6
20240304180326 35 300 0.0 1.0 0.00 0.00 0.00 53 1014.5
20240304175827 35 304 0.0 7.0 0.00 0.00 0.00 53 1014.5
20240304175322 35 298 0.0 7.0 0.00 0.00 0.00 53 1014.5
20240304174840 34 305 0.0 0.0 0.00 0.00 0.00 54 1014.4
20240304174340 34 319 0.0 1.0 0.00 0.00 0.00 54 1014.5
20240304173826 34 338 0.0 1.0 0.00 0.00 0.00 54 1014.4
20240304173341 34 360 0.0 0.0 0.00 0.00 0.00 54 1014.4
20240304172821 34 317 0.0 0.0 0.00 0.00 0.00 55 1014.4
20240304172338 34 311 0.0 0.0 0.00 0.00 0.00 55 1014.3
20240304171824 34 304 0.0 10.0 0.00 0.00 0.00 55 1014.3
20240304171343 34 294 0.0 10.0 0.00 0.00 0.00 55 1014.2
20240304170817 34 325 0.0 1.0 0.00 0.00 0.00 56 1014.2
20240304170323 33 295 0.0 0.0 0.00 0.00 0.00 57 1014.1
20240304165827 33 291 0.0 0.0 0.00 0.00 0.00 57 1014.2
20240304165333 33 326 0.0 8.0 0.00 0.00 0.00 56 1014.2
20240304164828 33 311 1.0 8.0 0.00 0.00 0.00 56 1014.2
20240304164349 33 304 0.0 1.0 0.00 0.00 0.00 56 1014.1
20240304163843 33 304 0.0 1.0 0.00 0.00 0.00 57 1014.2
20240304163337 33 336 0.0 0.0 0.00 0.00 0.00 57 1014.4
20240304162838 33 298 0.0 0.0 0.00 0.00 0.00 58 1014.5
20240304162324 33 313 0.0 0.0 0.00 0.00 0.00 58 1014.4
20240304161819 33 310 0.0 0.0 0.00 0.00 0.00 58 1014.4
20240304161321 33 306 0.0 7.0 0.00 0.00 0.00 58 1014.4
20240304160837 33 307 1.0 7.0 0.00 0.00 0.00 59 1014.3
20240304160323 33 332 0.0 1.0 0.00 0.00 0.00 60 1014.2
20240304155846 33 329 0.0 1.0 0.00 0.00 0.00 60 1014.0
20240304155330 33 315 0.0 0.0 0.00 0.00 0.00 62 1014.0
20240304154825 33 295 0.0 0.0 0.00 0.00 0.00 62 1014.0
20240304154328 33 306 0.0 0.0 0.00 0.00 0.00 61 1014.1
20240304153824 33 312 0.0 0.0 0.00 0.00 0.00 61 1014.1
20240304153339 33 303 0.0 0.0 0.00 0.00 0.00 61 1014.2
20240304152822 33 317 0.0 0.0 0.00 0.00 0.00 61 1014.2
20240304152328 33 297 0.0 0.0 0.00 0.00 0.00 61 1014.2
20240304151823 33 284 0.0 0.0 0.00 0.00 0.00 61 1014.3
20240304151326 33 267 0.0 0.0 0.00 0.00 0.00 62 1014.2
20240304150840 33 275 0.0 0.0 0.00 0.00 0.00 62 1014.1
20240304150326 33 274 0.0 0.0 0.00 0.00 0.00 62 1014.3
20240304145822 33 278 0.0 0.0 0.00 0.00 0.00 62 1014.4
20240304145316 33 270 0.0 0.0 0.00 0.00 0.00 62 1014.5
20240304144830 33 284 0.0 0.0 0.00 0.00 0.00 62 1014.5
20240304144331 33 292 0.0 0.0 0.00 0.00 0.00 62 1014.5
20240304143837 33 278 0.0 0.0 0.00 0.00 0.00 61 1014.4
20240304143331 33 301 0.0 0.0 0.00 0.00 0.00 61 1014.2
20240304142831 33 291 0.0 0.0 0.00 0.00 0.00 61 1013.9
20240304142329 33 308 0.0 0.0 0.00 0.00 0.00 61 1014.0
20240304141832 33 277 0.0 0.0 0.00 0.00 0.00 60 1013.8
20240304141403 33 249 0.0 0.0 0.00 0.00 0.00 61 1013.6
20240304140828 33 286 0.0 0.0 0.00 0.00 0.00 62 1013.6
20240304140314 33 323 0.0 0.0 0.00 0.00 0.00 62 1013.6
20240304135826 33 303 0.0 0.0 0.00 0.00 0.00 63 1013.5
20240304135331 33 279 0.0 0.0 0.00 0.00 0.00 65 1013.5
20240304134846 33 324 0.0 0.0 0.00 0.00 0.00 65 1013.4
20240304134322 33 311 0.0 0.0 0.00 0.00 0.00 65 1013.3
20240304133837 33 275 0.0 0.0 0.00 0.00 0.00 65 1013.5
20240304133327 33 301 0.0 0.0 0.00 0.00 0.00 65 1013.3
20240304132827 33 279 0.0 0.0 0.00 0.00 0.00 65 1013.2
20240304132331 33 290 0.0 4.0 0.00 0.00 0.00 67 1013.2
20240304131825 33 261 0.0 4.0 0.00 0.00 0.00 66 1013.2
20240304131322 34 273 0.0 0.0 0.00 0.00 0.00 66 1013.1
20240304130838 34 264 0.0 0.0 0.00 0.00 0.00 67 1013.0
20240304130323 34 236 0.0 0.0 0.00 0.00 0.00 66 1012.7
20240304125834 34 261 0.0 0.0 0.00 0.00 0.00 66 1012.7
20240304125319 34 261 0.0 2.0 0.00 0.00 0.00 66 1012.6
20240304124854 34 302 0.0 2.0 0.00 0.00 0.00 66 1012.4
20240304124314 34 276 0.0 0.0 0.00 0.00 0.00 68 1012.2
20240304123822 34 273 0.0 1.0 0.00 0.00 0.00 67 1012.2
20240304123316 34 271 0.0 1.0 0.00 0.00 0.00 67 1012.0
20240304122838 34 257 0.0 1.0 0.00 0.00 0.00 67 1012.0
20240304122332 34 281 0.0 0.0 0.00 0.00 0.00 67 1011.7
20240304121814 34 302 0.0 0.0 0.00 0.00 0.00 67 1011.4
20240304121342 34 290 0.0 0.0 0.00 0.00 0.00 67 1011.3
20240304120838 34 265 0.0 0.0 0.00 0.00 0.00 68 1011.1
20240304120323 34 272 0.0 0.0 0.00 0.00 0.00 67 1011.0
20240304115824 34 275 0.0 0.0 0.00 0.00 0.00 68 1010.9
20240304115339 34 259 0.0 0.0 0.00 0.00 0.00 68 1010.9
20240304114845 35 246 0.0 0.0 0.00 0.00 0.00 69 1010.9
20240304114325 35 259 0.0 0.0 0.00 0.00 0.00 69 1011.0
20240304113820 35 219 0.0 0.0 0.00 0.00 0.00 69 1011.0
20240304113336 35 246 0.0 0.0 0.00 0.00 0.00 69 1011.1
20240304112837 35 262 0.0 0.0 0.00 0.00 0.00 70 1011.3
20240304112323 35 260 0.0 1.0 0.00 0.00 0.00 70 1011.2
20240304111839 35 256 0.0 2.0 0.00 0.00 0.00 70 1011.2
20240304111340 35 250 0.0 2.0 0.00 0.00 0.00 71 1010.9
20240304110826 35 291 0.0 0.0 0.00 0.00 0.00 71 1010.6
20240304110321 35 247 0.0 0.0 0.00 0.00 0.00 71 1010.4